OK,87,36,794,87,2014-10-01T01:40:00,0,28072564,187880
OK,87,36,794,87,2014-10-01T01:45:00,0,28073011,187880
OK,87,36,794,87,2014-10-01T01:50:00,0,28073460,187880
OK,87,36,794,87,2014-10-01T01:55:00,0,28073779,187880
OK,87,36,794,87,2014-10-01T02:00:00,0,28074226,187880
OK,87,36,794,87,2014-10-01T02:05:00,0,28074669,187880
OK,87,36,794,87,2014-10-01T02:15:00,0,28075115,187880
OK,87,36,794,87,2014-10-01T02:20:00,0,28075564,187880
OK,87,36,794,87,2014-10-01T02:25:00,0,28076396,187880
OK,87,36,794,87,2014-10-01T02:35:00,0,28076845,187880
OK,87,36,794,87,2014-10-01T02:40:00,0,28077294,187880
OK,111,28,794,111,2014-10-01T02:45:00,0,28078146,187880
OK,117,27,794,117,2014-10-01T02:55:00,0,28078595,187880
OK,117,27,794,117,2014-10-01T03:00:00,0,28079040,187880
OK,117,27,794,117,2014-10-01T03:05:00,0,28079488,187880
OK,117,27,794,117,2014-10-01T03:10:00,0,28079931,187880
OK,117,27,794,117,2014-10-01T03:20:00,0,28080714,187880
OK,117,27,794,117,2014-10-01T03:25:00,0,28081163,187880
OK,117,27,794,117,2014-10-01T03:30:00,0,28081611,187880
OK,117,27,794,117,2014-10-01T03:35:00,0,28082059,187880
OK,117,27,794,117,2014-10-01T03:40:00,0,28082508,187880
OK,117,27,794,117,2014-10-01T03:50:00,0,28083373,187880
OK,117,27,794,117,2014-10-01T03:55:00,0,28083822,187880
OK,117,27,794,117,2014-10-01T04:00:00,0,28084271,187880
OK,117,27,794,117,2014-10-01T04:05:00,0,28084711,187880
OK,117,27,794,117,2014-10-01T04:10:00,0,28085137,187880
OK,117,27,794,117,2014-10-01T04:15:00,0,28085586,187880
OK,117,27,794,117,2014-10-01T04:20:00,0,28086031,187880
OK,117,27,794,117,2014-10-01T04:25:00,0,28086480,187880
OK,117,27,794,117,2014-10-01T04:30:00,0,28086922,187880
OK,117,27,794,117,2014-10-01T04:35:00,0,28087371,187880
OK,70,45,794,70,2014-10-01T04:40:00,2,28087816,187880
OK,70,45,794,70,2014-10-01T04:45:00,2,28088265,187880
OK,78,41,794,78,2014-10-01T04:50:00,1,28088689,187880
OK,78,41,794,78,2014-10-01T04:55:00,1,28089132,187880
OK,78,41,794,78,2014-10-01T05:00:00,0,28089568,187880
OK,78,41,794,78,2014-10-01T05:05:00,0,28090017,187880
OK,87,36,794,87,2014-10-01T05:10:00,1,28090466,187880
OK,87,36,794,87,2014-10-01T05:15:00,0,28090810,187880
OK,108,29,794,108,2014-10-01T05:20:00,1,28091259,187880
OK,108,29,794,108,2014-10-01T05:25:00,1,28091703,187880
OK,108,29,794,108,2014-10-01T05:30:00,0,28092125,187880
OK,108,29,794,108,2014-10-01T05:35:00,0,28092573,187880
OK,108,29,794,108,2014-10-01T05:40:00,0,28093018,187880
OK,136,23,794,136,2014-10-01T05:50:00,2,28093890,187880
OK,145,22,794,145,2014-10-01T06:00:00,3,28094746,187880
OK,145,22,794,145,2014-10-01T06:05:00,1,28095195,187880
OK,107,29,794,107,2014-10-01T06:10:00,1,28095642,187880
OK,156,20,794,156,2014-10-01T06:20:00,0,28096504,187880
OK,156,20,794,156,2014-10-01T06:25:00,0,28096953,187880
OK,156,20,794,156,2014-10-01T06:30:00,0,28097387,187880
OK,156,20,794,156,2014-10-01T06:35:00,0,28097836,187880
OK,149,21,794,149,2014-10-01T06:40:00,1,28098285,187880
OK,130,24,794,130,2014-10-01T06:45:00,2,28098722,187880
OK,116,27,794,116,2014-10-01T06:50:00,2,28099166,187880
OK,134,23,794,134,2014-10-01T07:00:00,0,28099957,187880
OK,104,30,794,104,2014-10-01T07:10:00,2,28100713,187880
OK,170,18,794,170,2014-10-01T07:20:00,1,28101533,187880
OK,170,18,794,170,2014-10-01T07:25:00,0,28101982,187880
OK,170,18,794,170,2014-10-01T07:30:00,0,28102418,187880
OK,78,41,794,78,2014-10-01T07:35:00,2,28102867,187880
OK,78,41,794,78,2014-10-01T07:40:00,1,28103294,187880
OK,78,41,794,78,2014-10-01T07:45:00,0,28103741,187880
OK,78,41,794,78,2014-10-01T07:50:00,0,28104186,187880
OK,116,27,794,116,2014-10-01T07:55:00,2,28104631,187880
OK,115,27,794,115,2014-10-01T08:00:00,3,28105070,187880
OK,115,27,794,115,2014-10-01T08:05:00,4,28105516,187880
OK,143,22,794,143,2014-10-01T08:10:00,3,28105957,187880
OK,103,31,794,103,2014-10-01T08:15:00,4,28106405,187880
OK,103,31,794,103,2014-10-01T08:20:00,0,28107232,187880
OK,98,32,794,98,2014-10-01T08:30:00,1,28107681,187880
OK,98,32,794,98,2014-10-01T08:40:00,0,28108569,187880
OK,129,24,794,129,2014-10-01T08:50:00,1,28109446,187880
OK,120,26,794,120,2014-10-01T09:00:00,3,28110238,187880
OK,125,25,794,125,2014-10-01T09:10:00,2,28111110,187880
OK,144,22,794,144,2014-10-01T09:20:00,2,28111988,187880
OK,124,25,794,124,2014-10-01T09:30:00,2,28112778,187880
OK,113,28,794,113,2014-10-01T09:35:00,1,28113651,187880
OK,175,18,794,175,2014-10-01T09:40:00,1,28114086,187880
OK,175,18,794,175,2014-10-01T09:45:00,0,28114532,187880
OK,175,18,794,175,2014-10-01T09:50:00,0,28114889,187880
OK,138,23,794,138,2014-10-01T10:00:00,1,28115335,187880
OK,138,23,794,138,2014-10-01T10:10:00,0,28116196,187880
OK,98,32,794,98,2014-10-01T10:20:00,0,28117053,187880
OK,104,30,794,104,2014-10-01T10:25:00,3,28117927,187880
OK,105,30,794,105,2014-10-01T10:30:00,2,28118374,187880
OK,77,41,794,77,2014-10-01T10:35:00,2,28118820,187880
OK,107,29,794,107,2014-10-01T10:40:00,3,28119265,187880
OK,108,29,794,108,2014-10-01T10:45:00,2,28119712,187880
OK,112,28,794,112,2014-10-01T10:50:00,1,28120159,187880
OK,141,22,794,141,2014-10-01T11:00:00,4,28120608,187880
OK,96,33,794,96,2014-10-01T11:05:00,4,28121440,187880
OK,96,33,794,96,2014-10-01T11:10:00,1,28121879,187880
OK,92,34,794,92,2014-10-01T11:15:00,2,28122327,187880
OK,104,30,794,104,2014-10-01T11:20:00,1,28122769,187880
OK,96,33,794,96,2014-10-01T11:30:00,1,28123217,187880
OK,77,41,794,77,2014-10-01T11:40:00,1,28124098,187880
OK,127,25,794,127,2014-10-01T11:50:00,1,28124949,187880
OK,138,23,794,138,2014-10-01T11:55:00,1,28125827,187880
OK,115,27,794,115,2014-10-01T12:00:00,2,28126182,187880
OK,88,36,794,88,2014-10-01T12:05:00,2,28126628,187880
OK,84,38,794,84,2014-10-01T12:10:00,1,28127077,187880
OK,84,38,794,84,2014-10-01T12:15:00,0,28127526,187880
OK,84,38,794,84,2014-10-01T12:20:00,0,28127957,187880
OK,149,21,794,149,2014-10-01T12:25:00,1,28128403,187880
OK,134,23,794,134,2014-10-01T12:30:00,2,28128841,187880
OK,117,27,794,117,2014-10-01T12:35:00,1,28129287,187880
OK,193,16,794,193,2014-10-01T12:40:00,2,28129722,187880
OK,193,16,794,193,2014-10-01T12:45:00,2,28130170,187880
OK,144,22,794,144,2014-10-01T12:50:00,1,28130600,187880
OK,127,25,794,127,2014-10-01T12:55:00,2,28131047,187880
OK,126,25,794,126,2014-10-01T13:00:00,2,28131486,187880
OK,193,16,794,193,2014-10-01T13:05:00,3,28131933,187880
OK,185,17,794,185,2014-10-01T13:10:00,4,28132372,187880
OK,91,35,794,91,2014-10-01T13:15:00,1,28132818,187880
OK,91,35,794,91,2014-10-01T13:20:00,0,28133256,187880
OK,119,26,794,119,2014-10-01T13:25:00,1,28133705,187880
OK,119,26,794,119,2014-10-01T13:30:00,1,28134144,187880
OK,106,30,794,106,2014-10-01T13:35:00,1,28134593,187880
OK,106,30,794,106,2014-10-01T13:40:00,0,28135013,187880
OK,106,30,794,106,2014-10-01T13:45:00,0,28135461,187880
OK,220,14,794,220,2014-10-01T13:50:00,1,28135898,187880
OK,165,19,794,165,2014-10-01T13:55:00,2,28136347,187880
OK,110,29,794,110,2014-10-01T14:00:00,1,28136787,187880
OK,167,19,794,167,2014-10-01T14:05:00,1,28137236,187880
OK,167,19,794,167,2014-10-01T14:10:00,3,28137671,187880
OK,168,19,794,168,2014-10-01T14:15:00,3,28138119,187880
OK,168,19,794,168,2014-10-01T14:20:00,3,28138548,187880
OK,156,20,794,156,2014-10-01T14:25:00,4,28138996,187880
OK,154,20,794,154,2014-10-01T14:30:00,2,28139408,187880
OK,143,22,794,143,2014-10-01T14:35:00,2,28139856,187880
OK,144,22,794,144,2014-10-01T14:40:00,2,28140299,187880
OK,94,34,794,94,2014-10-01T14:45:00,1,28140747,187880
OK,137,23,794,137,2014-10-01T14:50:00,2,28141175,187880
OK,152,21,794,152,2014-10-01T14:55:00,2,28141622,187880
OK,113,28,794,113,2014-10-01T15:00:00,2,28142052,187880
OK,114,28,794,114,2014-10-01T15:10:00,2,28142499,187880
OK,153,20,794,153,2014-10-01T15:15:00,1,28143375,187880
OK,144,22,794,144,2014-10-01T15:20:00,2,28143823,187880
OK,115,27,794,115,2014-10-01T15:30:00,2,28144272,187880
OK,129,24,794,129,2014-10-01T15:35:00,1,28145107,187880
OK,129,24,794,129,2014-10-01T15:40:00,1,28145556,187880
OK,90,35,794,90,2014-10-01T15:45:00,1,28146005,187880
OK,108,29,794,108,2014-10-01T15:55:00,2,28146454,187880
OK,102,31,794,102,2014-10-01T16:00:00,0,28147307,187880
OK,130,24,794,130,2014-10-01T16:05:00,1,28147755,187880
OK,130,24,794,130,2014-10-01T16:10:00,1,28148160,187880
OK,78,41,794,78,2014-10-01T16:15:00,1,28148605,187880
OK,78,41,794,78,2014-10-01T16:20:00,1,28149046,187880
OK,123,26,794,123,2014-10-01T16:30:00,1,28149493,187880
OK,123,26,794,123,2014-10-01T16:40:00,0,28150368,187880
OK,123,26,794,123,2014-10-01T16:50:00,0,28151235,187880
OK,123,26,794,123,2014-10-01T16:55:00,0,28151684,187880
OK,93,34,794,93,2014-10-01T17:00:00,1,28152133,187880
OK,93,34,794,93,2014-10-01T17:05:00,1,28152579,187880
OK,93,34,794,93,2014-10-01T17:10:00,0,28153026,187880
OK,119,26,794,119,2014-10-01T17:20:00,1,28153475,187880
OK,108,29,794,108,2014-10-01T17:30:00,1,28154334,187880
OK,110,29,794,110,2014-10-01T17:40:00,1,28155225,187880
OK,110,29,794,110,2014-10-01T17:45:00,0,28156091,187880
OK,93,34,794,93,2014-10-01T17:55:00,3,28156540,187880
OK,100,32,794,100,2014-10-01T18:00:00,0,28156982,187880
OK,100,32,794,100,2014-10-01T18:05:00,0,28157856,187880
OK,100,32,794,100,2014-10-01T18:10:00,0,28158301,187880
OK,100,32,794,100,2014-10-01T18:15:00,0,28158747,187880
OK,87,36,794,87,2014-10-01T18:20:00,2,28159192,187880
OK,86,37,794,86,2014-10-01T18:25:00,3,28159528,187880
OK,61,52,794,61,2014-10-01T18:30:00,0,28159976,187880
OK,61,52,794,61,2014-10-01T18:35:00,0,28160425,187880
OK,61,52,794,61,2014-10-01T18:40:00,0,28160867,187880
OK,61,52,794,61,2014-10-01T18:45:00,0,28161312,187880
OK,61,52,794,61,2014-10-01T18:50:00,0,28161731,187880
OK,61,52,794,61,2014-10-01T19:00:00,0,28162178,187880
OK,62,51,794,62,2014-10-01T19:05:00,1,28163012,187880
OK,62,51,794,62,2014-10-01T19:10:00,1,28163459,187880
OK,62,51,794,62,2014-10-01T19:15:00,0,28163908,187880
OK,62,51,794,62,2014-10-01T19:20:00,0,28164341,187880
OK,62,51,794,62,2014-10-01T19:30:00,0,28164788,187880
OK,62,51,794,62,2014-10-01T19:35:00,0,28165661,187880
OK,62,51,794,62,2014-10-01T19:40:00,0,28166102,187880
OK,62,51,794,62,2014-10-01T19:45:00,0,28166464,187880
OK,62,51,794,62,2014-10-01T19:50:00,0,28166913,187880
OK,70,45,794,70,2014-10-01T19:55:00,1,28167342,187880
OK,70,45,794,70,2014-10-01T20:00:00,0,28167776,187880
OK,70,45,794,70,2014-10-01T20:05:00,0,28168224,187880
OK,66,48,794,66,2014-10-01T20:10:00,1,28168669,187880
OK,66,48,794,66,2014-10-01T20:15:00,1,28169118,187880
OK,66,48,794,66,2014-10-01T20:20:00,0,28169566,187880
OK,66,48,794,66,2014-10-01T20:25:00,0,28169992,187880
OK,66,48,794,66,2014-10-01T20:30:00,0,28170437,187880
OK,66,48,794,66,2014-10-01T20:35:00,0,28170885,187880
OK,66,48,794,66,2014-10-01T20:40:00,0,28171322,187880
OK,66,48,794,66,2014-10-01T20:45:00,0,28171768,187880
OK,66,48,794,66,2014-10-01T20:50:00,0,28172216,187880
OK,66,48,794,66,2014-10-01T20:55:00,0,28172662,187880
OK,66,48,794,66,2014-10-01T21:00:00,0,28173108,187880
OK,66,48,794,66,2014-10-01T21:05:00,0,28173557,187880
OK,66,48,794,66,2014-10-01T21:10:00,0,28173998,187880
OK,66,48,794,66,2014-10-01T21:15:00,0,28174447,187880
OK,66,48,794,66,2014-10-01T21:20:00,0,28174873,187880
OK,66,48,794,66,2014-10-01T21:25:00,0,28175269,187880
OK,66,48,794,66,2014-10-01T21:30:00,0,28175718,187880
OK,66,48,794,66,2014-10-01T21:35:00,0,28176167,187880
OK,66,48,794,66,2014-10-01T21:45:00,0,28176616,187880
OK,66,48,794,66,2014-10-01T21:50:00,0,28177412,187880
OK,66,48,794,66,2014-10-01T21:55:00,0,28177858,187880
OK,66,48,794,66,2014-10-01T22:00:00,0,28178307,187880
OK,66,48,794,66,2014-10-01T22:05:00,0,28178754,187880
OK,66,48,794,66,2014-10-01T22:10:00,0,28179190,187880
OK,66,48,794,66,2014-10-01T22:15:00,0,28179631,187880
OK,66,48,794,66,2014-10-01T22:20:00,0,28180078,187880
OK,66,48,794,66,2014-10-01T22:25:00,0,28180477,187880
OK,66,48,794,66,2014-10-01T22:30:00,0,28180925,187880
OK,66,48,794,66,2014-10-01T22:35:00,0,28181349,187880
OK,66,48,794,66,2014-10-01T22:40:00,0,28181797,187880
OK,66,48,794,66,2014-10-01T22:45:00,0,28182244,187880
OK,66,48,794,66,2014-10-01T22:50:00,0,28182693,187880
OK,66,48,794,66,2014-10-01T22:55:00,0,28183110,187880
OK,85,37,794,85,2014-10-01T23:00:00,1,28183543,187880
OK,85,37,794,85,2014-10-01T23:05:00,0,28183988,187880
OK,85,37,794,85,2014-10-01T23:10:00,0,28184437,187880
OK,85,37,794,85,2014-10-01T23:15:00,0,28184872,187880
OK,85,37,794,85,2014-10-01T23:20:00,0,28185320,187880
OK,85,37,794,85,2014-10-01T23:25:00,0,28185751,187880
OK,85,37,794,85,2014-10-01T23:30:00,0,28186143,187880
OK,85,37,794,85,2014-10-01T23:40:00,0,28186990,187880
OK,85,37,794,85,2014-10-01T23:45:00,0,28187432,187880
OK,85,37,794,85,2014-10-01T23:50:00,0,28187881,187880
OK,85,37,794,85,2014-10-01T23:55:00,0,28188322,187880
OK,85,37,794,85,2014-10-02T00:00:00,0,28188758,187880
OK,85,37,794,85,2014-10-02T00:05:00,0,28189207,187880
OK,85,37,794,85,2014-10-02T00:10:00,0,28189633,187880
OK,85,37,794,85,2014-10-02T00:20:00,0,28190078,187880
OK,85,37,794,85,2014-10-02T00:25:00,0,28190880,187880
OK,85,37,794,85,2014-10-02T00:30:00,0,28191329,187880
OK,85,37,794,85,2014-10-02T00:35:00,0,28191642,187880
OK,85,37,794,85,2014-10-02T00:40:00,0,28192084,187880
OK,85,37,794,85,2014-10-02T00:45:00,0,28192518,187880
OK,85,37,794,85,2014-10-02T00:50:00,0,28192961,187880
OK,85,37,794,85,2014-10-02T00:55:00,0,28193328,187880
OK,85,37,794,85,2014-10-02T01:00:00,0,28193777,187880
OK,85,37,794,85,2014-10-02T01:10:00,0,28194226,187880
OK,85,37,794,85,2014-10-02T01:15:00,0,28194675,187880
OK,85,37,794,85,2014-10-02T01:20:00,0,28195360,187880
OK,85,37,794,85,2014-10-02T01:30:00,0,28195809,187880
OK,85,37,794,85,2014-10-02T01:35:00,0,28196542,187880
OK,85,37,794,85,2014-10-02T01:40:00,0,28196967,187880
OK,85,37,794,85,2014-10-02T01:45:00,0,28197414,187880
OK,85,37,794,85,2014-10-02T01:50:00,0,28197862,187880
OK,85,37,794,85,2014-10-02T01:55:00,0,28198310,187880
OK,85,37,794,85,2014-10-02T02:05:00,0,28198759,187880
OK,85,37,794,85,2014-10-02T02:10:00,0,28199573,187880
OK,85,37,794,85,2014-10-02T02:15:00,0,28200015,187880
OK,85,37,794,85,2014-10-02T02:20:00,0,28200458,187880
OK,85,37,794,85,2014-10-02T02:25:00,0,28200907,187880
OK,85,37,794,85,2014-10-02T02:30:00,0,28201338,187880
OK,85,37,794,85,2014-10-02T02:45:00,0,28202236,187880
OK,85,37,794,85,2014-10-02T02:50:00,0,28202678,187880
OK,85,37,794,85,2014-10-02T02:55:00,0,28203126,187880
OK,85,37,794,85,2014-10-02T03:00:00,0,28203561,187880
OK,85,37,794,85,2014-10-02T03:10:00,0,28204010,187880
OK,85,37,794,85,2014-10-02T03:25:00,0,28204459,187880
OK,85,37,794,85,2014-10-02T03:30:00,0,28204908,187880
OK,85,37,794,85,2014-10-02T03:35:00,0,28205338,187880
OK,85,37,794,85,2014-10-02T03:40:00,0,28205783,187880
OK,85,37,794,85,2014-10-02T03:45:00,0,28206166,187880
OK,85,37,794,85,2014-10-02T03:55:00,0,28207064,187880
OK,85,37,794,85,2014-10-02T04:00:00,0,28207486,187880
OK,85,37,794,85,2014-10-02T04:05:00,0,28207932,187880
OK,85,37,794,85,2014-10-02T04:10:00,0,28208364,187880
OK,85,37,794,85,2014-10-02T04:15:00,0,28208808,187880
OK,75,42,794,75,2014-10-02T04:20:00,1,28209247,187880
OK,75,42,794,75,2014-10-02T04:30:00,0,28209695,187880
OK,75,42,794,75,2014-10-02T04:35:00,0,28210567,187880
OK,125,25,794,125,2014-10-02T04:40:00,1,28211001,187880
OK,125,25,794,125,2014-10-02T04:45:00,1,28211436,187880
OK,125,25,794,125,2014-10-02T04:50:00,0,28211814,187880
OK,125,25,794,125,2014-10-02T05:00:00,0,28212263,187880
OK,124,25,794,124,2014-10-02T05:10:00,0,28213141,187880
OK,124,25,794,124,2014-10-02T05:15:00,0,28213590,187880
OK,124,25,794,124,2014-10-02T05:20:00,0,28214028,187880
OK,124,25,794,124,2014-10-02T05:30:00,0,28214890,187880
OK,151,21,794,151,2014-10-02T05:40:00,1,28215755,187880
OK,151,21,794,151,2014-10-02T05:45:00,1,28216534,187880
OK,151,21,794,151,2014-10-02T05:50:00,0,28216983,187880
OK,120,26,794,120,2014-10-02T06:00:00,4,28217430,187880
OK,128,25,794,128,2014-10-02T06:10:00,0,28218318,187880
OK,95,33,794,95,2014-10-02T06:15:00,0,28219187,187880
OK,95,33,794,95,2014-10-02T06:20:00,0,28219562,187880
OK,115,27,794,115,2014-10-02T06:25:00,1,28220009,187880
OK,115,27,794,115,2014-10-02T06:30:00,1,28220445,187880
OK,70,45,794,70,2014-10-02T06:40:00,1,28220892,187880
OK,77,41,794,77,2014-10-02T06:45:00,2,28221559,187880
OK,77,41,794,77,2014-10-02T07:00:00,0,28222153,187880
OK,77,41,794,77,2014-10-02T07:05:00,0,28222602,187880
OK,116,27,794,116,2014-10-02T07:10:00,1,28223035,187880
OK,116,27,794,116,2014-10-02T07:15:00,1,28223469,187880
OK,116,27,794,116,2014-10-02T07:20:00,0,28223916,187880
OK,107,29,794,107,2014-10-02T07:25:00,0,28224271,187880
OK,107,29,794,107,2014-10-02T07:30:00,0,28224720,187880
OK,86,37,794,86,2014-10-02T07:40:00,1,28225169,187880
OK,86,37,794,86,2014-10-02T07:50:00,0,28226383,187880
OK,160,20,794,160,2014-10-02T08:00:00,1,28226830,187880
OK,107,29,794,107,2014-10-02T08:10:00,0,28227694,187880
OK,131,24,794,131,2014-10-02T08:20:00,0,28228502,187880
OK,80,40,794,80,2014-10-02T08:30:00,0,28229361,187880
OK,111,28,794,111,2014-10-02T08:40:00,2,28230160,187880
OK,111,28,794,111,2014-10-02T08:50:00,0,28230975,187880
OK,111,28,794,111,2014-10-02T08:55:00,0,28231847,187880
OK,111,28,794,111,2014-10-02T09:00:00,0,28232192,187880
OK,111,28,794,111,2014-10-02T09:10:00,0,28232638,187880
OK,89,36,794,89,2014-10-02T09:20:00,0,28233087,187880
OK,89,36,794,89,2014-10-02T09:25:00,0,28233960,187880
OK,89,36,794,89,2014-10-02T09:30:00,0,28234295,187880
OK,124,25,794,124,2014-10-02T09:35:00,3,28234742,187880
OK,97,33,794,97,2014-10-02T09:40:00,1,28235169,187880
OK,101,31,794,101,2014-10-02T09:45:00,1,28235618,187880
OK,101,31,794,101,2014-10-02T09:50:00,0,28236062,187880
OK,101,31,794,101,2014-10-02T09:55:00,0,28236508,187880
OK,101,31,794,101,2014-10-02T10:00:00,0,28236913,187880
OK,101,31,794,101,2014-10-02T10:05:00,0,28237359,187880
OK,101,31,794,101,2014-10-02T10:10:00,0,28237807,187880
OK,116,27,794,116,2014-10-02T10:15:00,2,28238255,187880
OK,107,29,794,107,2014-10-02T10:20:00,3,28238696,187880
OK,107,29,794,107,2014-10-02T10:25:00,3,28239144,187880
OK,108,29,794,108,2014-10-02T10:30:00,0,28239575,187880
OK,102,31,794,102,2014-10-02T10:35:00,1,28240023,187880
OK,102,31,794,102,2014-10-02T10:40:00,0,28240468,187880
OK,102,31,794,102,2014-10-02T10:50:00,0,28240916,187880
OK,102,31,794,102,2014-10-02T11:00:00,0,28241796,187880
OK,102,31,794,102,2014-10-02T11:05:00,0,28242641,187880
OK,77,41,794,77,2014-10-02T11:15:00,0,28243090,187880
OK,86,37,794,86,2014-10-02T11:20:00,1,28243854,187880
OK,86,37,794,86,2014-10-02T11:25:00,1,28244283,187880
OK,86,37,794,86,2014-10-02T11:30:00,0,28244731,187880
OK,84,38,794,84,2014-10-02T11:35:00,4,28245180,187880
OK,70,45,794,70,2014-10-02T11:40:00,3,28245590,187880
OK,70,45,794,70,2014-10-02T11:45:00,0,28246035,187880
OK,112,28,794,112,2014-10-02T11:50:00,2,28246472,187880
OK,198,16,794,198,2014-10-02T11:55:00,1,28246921,187880
OK,198,16,794,198,2014-10-02T12:00:00,0,28247367,187880
OK,198,16,794,198,2014-10-02T12:05:00,0,28247799,187880
OK,198,16,794,198,2014-10-02T12:10:00,0,28248246,187880
OK,105,30,794,105,2014-10-02T12:15:00,0,28248694,187880
OK,105,30,794,105,2014-10-02T12:20:00,0,28249122,187880
OK,116,27,794,116,2014-10-02T12:25:00,2,28249565,187880
OK,116,27,794,116,2014-10-02T12:30:00,2,28249985,187880
OK,85,37,794,85,2014-10-02T12:35:00,2,28250382,187880
OK,133,24,794,133,2014-10-02T12:45:00,3,28251162,187880
OK,159,20,794,159,2014-10-02T13:20:00,3,28251707,187880
OK,115,27,794,115,2014-10-02T13:30:00,3,28252291,187880
OK,102,31,794,102,2014-10-02T13:35:00,1,28252733,187880
OK,102,31,794,102,2014-10-02T13:40:00,0,28253150,187880
OK,116,27,794,116,2014-10-02T13:45:00,3,28253599,187880
OK,113,28,794,113,2014-10-02T13:50:00,2,28254005,187880
OK,138,23,794,138,2014-10-02T13:55:00,1,28254325,187880
OK,162,19,794,162,2014-10-02T14:10:00,5,28254902,187880
OK,153,20,794,153,2014-10-02T14:15:00,6,28255351,187880
OK,199,16,794,199,2014-10-02T14:20:00,0,28255779,187880
OK,199,16,794,199,2014-10-02T14:25:00,0,28256228,187880
OK,128,25,794,128,2014-10-02T14:30:00,3,28256656,187880
OK,124,25,794,124,2014-10-02T14:35:00,2,28257105,187880
OK,140,22,794,140,2014-10-02T14:40:00,0,28257546,187880
OK,140,22,794,140,2014-10-02T14:45:00,0,28257994,187880
OK,140,22,794,140,2014-10-02T14:50:00,0,28258427,187880
OK,140,22,794,140,2014-10-02T14:55:00,0,28258873,187880
OK,158,20,794,158,2014-10-02T15:00:00,1,28259322,187880
OK,100,32,794,100,2014-10-02T15:05:00,1,28259769,187880
OK,100,32,794,100,2014-10-02T15:10:00,0,28260202,187880
OK,110,29,794,110,2014-10-02T15:15:00,3,28260651,187880
OK,110,29,794,110,2014-10-02T15:20:00,3,28261091,187880
OK,136,23,794,136,2014-10-02T15:25:00,2,28261473,187880
OK,130,24,794,130,2014-10-02T15:30:00,1,28261903,187880
OK,99,32,794,99,2014-10-02T15:35:00,2,28262350,187880
OK,95,33,794,95,2014-10-02T15:40:00,1,28262796,187880
OK,132,24,794,132,2014-10-02T15:45:00,4,28263234,187880
OK,132,24,794,132,2014-10-02T15:50:00,4,28263675,187880
OK,125,25,794,125,2014-10-02T15:55:00,0,28264077,187880
OK,125,25,794,125,2014-10-02T16:00:00,0,28264526,187880
OK,77,41,794,77,2014-10-02T16:05:00,3,28264964,187880
OK,94,34,794,94,2014-10-02T16:10:00,2,28265404,187880
OK,66,48,794,66,2014-10-02T16:15:00,0,28265800,187880
OK,66,48,794,66,2014-10-02T16:20:00,0,28266249,187880
OK,66,48,794,66,2014-10-02T16:25:00,0,28266698,187880
OK,66,48,794,66,2014-10-02T16:30:00,0,28267021,187880
OK,66,48,794,66,2014-10-02T16:35:00,0,28267470,187880
OK,66,48,794,66,2014-10-02T16:40:00,0,28267919,187880
OK,66,48,794,66,2014-10-02T16:45:00,0,28268361,187880
OK,66,48,794,66,2014-10-02T16:50:00,0,28268810,187880
OK,66,48,794,66,2014-10-02T16:55:00,0,28269259,187880
OK,66,48,794,66,2014-10-02T17:00:00,0,28269694,187880
OK,66,48,794,66,2014-10-02T17:05:00,0,28270143,187880
OK,66,48,794,66,2014-10-02T17:10:00,0,28270577,187880
OK,66,48,794,66,2014-10-02T17:15:00,0,28271026,187880
OK,66,48,794,66,2014-10-02T17:20:00,0,28271456,187880
OK,66,48,794,66,2014-10-02T17:25:00,0,28271904,187880
OK,110,29,794,110,2014-10-02T17:30:00,2,28272340,187880
OK,107,29,794,107,2014-10-02T17:35:00,0,28272781,187880
OK,107,29,794,107,2014-10-02T17:40:00,0,28273229,187880
OK,107,29,794,107,2014-10-02T17:45:00,0,28273675,187880
OK,107,29,794,107,2014-10-02T17:55:00,0,28274124,187880
OK,107,29,794,107,2014-10-02T18:00:00,0,28274898,187880
OK,107,29,794,107,2014-10-02T18:05:00,0,28275337,187880
OK,107,29,794,107,2014-10-02T18:10:00,0,28275782,187880
OK,107,29,794,107,2014-10-02T18:15:00,0,28276228,187880
OK,107,29,794,107,2014-10-02T18:20:00,0,28276624,187880
OK,107,29,794,107,2014-10-02T18:30:00,0,28277073,187880
OK,107,29,794,107,2014-10-02T18:40:00,0,28277522,187880
OK,96,33,794,96,2014-10-02T18:45:00,0,28278319,187880
OK,96,33,794,96,2014-10-02T19:00:00,0,28278768,187880
OK,96,33,794,96,2014-10-02T19:05:00,0,28279217,187880
OK,96,33,794,96,2014-10-02T19:10:00,0,28279662,187880
OK,96,33,794,96,2014-10-02T19:15:00,0,28280103,187880
OK,96,33,794,96,2014-10-02T19:20:00,0,28280550,187880
OK,96,33,794,96,2014-10-02T19:25:00,0,28280954,187880
OK,96,33,794,96,2014-10-02T19:35:00,0,28281852,187880
OK,96,33,794,96,2014-10-02T19:40:00,0,28282283,187880
OK,96,33,794,96,2014-10-02T19:45:00,0,28282732,187880
OK,96,33,794,96,2014-10-02T19:50:00,0,28283179,187880
OK,96,33,794,96,2014-10-02T19:55:00,0,28283609,187880
OK,96,33,794,96,2014-10-02T20:00:00,0,28283979,187880
OK,112,28,794,112,2014-10-02T20:10:00,0,28284428,187880
OK,81,39,794,81,2014-10-02T20:15:00,1,28285211,187880
OK,81,39,794,81,2014-10-02T20:20:00,0,28285647,187880
OK,81,39,794,81,2014-10-02T20:25:00,0,28286062,187880
OK,81,39,794,81,2014-10-02T20:35:00,0,28286914,187880
OK,81,39,794,81,2014-10-02T20:40:00,0,28287345,187880
OK,0,0,794,0,2014-10-03T22:35:00,0,28291625,187880